Location: Unspecified
(0.0000°N, 0.0000°E)
Time: 07:46:27
(UTC+00:00)

Vanguard 2 Rocket - Pass Details

Date: 06 October 2023
Orbit: 552 x 3312 km, 32.9° (Epoch: 06 December)

Event Time Altitude Azimuth Distance (km) Brightness Sun altitude
Rises 03:21:11 0° 208° (SSW) 2,854 - -36.6°
Reaches altitude 10° 03:23:36 10° 191° (SSW) 2,104 - -36.0°
Exits shadow 03:26:42 22° 150° (SSE) 1,674 8.5 -35.2°
Maximum altitude 03:27:24 23° 138° (SE) 1,707 8.6 -35.1°
Drops below altitude 10° 03:32:36 10° 88° (E) 2,987 10.3 -33.8°
Sets 03:36:49 0° 75° (ENE) 4,447 11.4 -32.7°
